Time,TemperatureF,DewpointF,PressureIn,WindDirection,WindDirectionDegrees,WindSpeedMPH,WindSpeedGustMPH,Humidity,HourlyPrecipIn,Conditions,Clouds,dailyrainin,SoftwareType,DateUTC
2013-03-09 00:08:00,27.0,21.4,30.12,South,180,0.0,-999.0,79,-99.99,,,0.00,Acu-Link.com,2013-03-09 05:08:00,
2013-03-09 00:23:00,26.2,20.3,30.12,SSE,157,0.0,-999.0,78,-99.99,,,0.00,Acu-Link.com,2013-03-09 05:23:00,
2013-03-09 00:38:00,25.5,19.3,30.11,SE,135,0.0,-999.0,77,-99.99,,,0.00,Acu-Link.com,2013-03-09 05:38:00,
2013-03-09 00:53:00,25.3,15.9,30.11,SSE,157,0.0,-999.0,67,-99.99,,,0.00,Acu-Link.com,2013-03-09 05:53:00,
2013-03-09 01:08:00,24.8,13.3,30.10,ENE,67,3.2,-999.0,61,-99.99,,,0.00,Acu-Link.com,2013-03-09 06:08:00,
2013-03-09 01:24:00,27.7,14.5,30.10,NE,45,4.7,-999.0,57,-99.99,,,0.00,Acu-Link.com,2013-03-09 06:24:00,
2013-03-09 01:39:00,28.4,19.6,30.10,NE,45,4.2,-999.0,69,-99.99,,,0.00,Acu-Link.com,2013-03-09 06:39:00,
2013-03-09 02:09:00,28.6,21.1,30.08,ENE,67,5.8,-999.0,73,-99.99,,,0.00,Acu-Link.com,2013-03-09 07:09:00,
2013-03-09 02:24:00,28.4,20.9,30.09,NE,45,6.3,-999.0,73,-99.99,,,0.00,Acu-Link.com,2013-03-09 07:24:00,
2013-03-09 02:39:00,26.2,18.7,30.08,SSE,157,0.0,-999.0,73,-99.99,,,0.00,Acu-Link.com,2013-03-09 07:39:00,
2013-03-09 02:54:00,25.5,15.7,30.07,West,270,0.0,-999.0,66,-99.99,,,0.00,Acu-Link.com,2013-03-09 07:54:00,
2013-03-09 03:09:00,24.8,18.6,30.06,NE,45,0.0,-999.0,77,-99.99,,,0.00,Acu-Link.com,2013-03-09 08:09:00,
2013-03-09 03:24:00,24.6,17.8,30.04,NE,45,0.0,-999.0,75,-99.99,,,0.00,Acu-Link.com,2013-03-09 08:24:00,
2013-03-09 03:40:00,24.4,15.0,30.04,SE,135,0.0,-999.0,67,-99.99,,,0.00,Acu-Link.com,2013-03-09 08:40:00,
2013-03-09 03:55:00,24.3,10.9,30.04,South,180,0.0,-999.0,56,-99.99,,,0.00,Acu-Link.com,2013-03-09 08:55:00,
2013-03-09 04:10:00,23.9,8.9,30.03,SSW,202,0.0,-999.0,52,-99.99,,,0.00,Acu-Link.com,2013-03-09 09:10:00,
2013-03-09 04:25:00,23.9,10.5,30.05,West,270,1.7,-999.0,56,-99.99,,,0.00,Acu-Link.com,2013-03-09 09:25:00,
2013-03-09 04:41:00,25.2,10.1,30.06,North,0,0.0,-999.0,52,-99.99,,,0.00,Acu-Link.com,2013-03-09 09:41:00,
2013-03-09 04:56:00,25.2,9.6,30.06,ESE,112,0.0,-999.0,51,-99.99,,,0.00,Acu-Link.com,2013-03-09 09:56:00,
2013-03-09 05:11:00,25.5,9.9,30.05,East,90,0.0,-999.0,51,-99.99,,,0.00,Acu-Link.com,2013-03-09 10:11:00,
2013-03-09 05:26:00,25.0,11.1,30.05,SE,135,0.0,-999.0,55,-99.99,,,0.00,Acu-Link.com,2013-03-09 10:26:00,
2013-03-09 05:41:00,24.1,11.1,30.06,ESE,112,0.0,-999.0,57,-99.99,,,0.00,Acu-Link.com,2013-03-09 10:41:00,
2013-03-09 05:56:00,24.4,9.3,30.05,SE,135,0.0,-999.0,52,-99.99,,,0.00,Acu-Link.com,2013-03-09 10:56:00,
2013-03-09 06:11:00,24.3,8.8,30.05,SE,135,0.0,-999.0,51,-99.99,,,0.00,Acu-Link.com,2013-03-09 11:11:00,
2013-03-09 06:26:00,23.7,8.3,30.05,ESE,112,0.0,-999.0,51,-99.99,,,0.00,Acu-Link.com,2013-03-09 11:26:00,
2013-03-09 06:41:00,23.4,9.2,30.05,ESE,112,2.7,-999.0,54,-99.99,,,0.00,Acu-Link.com,2013-03-09 11:41:00,
2013-03-09 06:57:00,23.7,9.9,30.05,ESE,112,3.2,-999.0,55,-99.99,,,0.00,Acu-Link.com,2013-03-09 11:57:00,
2013-03-09 07:12:00,25.5,12.4,30.04,ESE,112,2.7,-999.0,57,-99.99,,,0.00,Acu-Link.com,2013-03-09 12:12:00,
2013-03-09 07:27:00,29.7,24.6,30.03,East,90,7.8,-999.0,81,-99.99,,,0.00,Acu-Link.com,2013-03-09 12:27:00,
2013-03-09 07:42:00,30.9,26.1,30.02,ENE,67,8.3,-999.0,82,-99.99,,,0.00,Acu-Link.com,2013-03-09 12:42:00,
2013-03-09 07:57:00,32.4,27.2,30.02,NNE,22,7.8,-999.0,81,-99.99,,,0.00,Acu-Link.com,2013-03-09 12:57:00,
2013-03-09 08:12:00,34.0,28.2,30.02,ENE,67,5.8,-999.0,79,-99.99,,,0.00,Acu-Link.com,2013-03-09 13:12:00,
2013-03-09 08:28:00,35.6,29.7,30.03,ESE,112,6.3,-999.0,79,-99.99,,,0.00,Acu-Link.com,2013-03-09 13:28:00,
2013-03-09 08:43:00,36.7,31.1,30.03,East,90,2.2,-999.0,80,-99.99,,,0.00,Acu-Link.com,2013-03-09 13:43:00,
2013-03-09 08:58:00,39.9,32.6,30.04,ENE,67,3.7,-999.0,75,-99.99,,,0.00,Acu-Link.com,2013-03-09 13:58:00,
2013-03-09 09:13:00,41.0,32.3,30.02,ESE,112,3.7,-999.0,71,-99.99,,,0.00,Acu-Link.com,2013-03-09 14:13:00,
2013-03-09 09:28:00,41.5,32.5,30.03,ESE,112,4.7,-999.0,70,-99.99,,,0.00,Acu-Link.com,2013-03-09 14:28:00,
2013-03-09 09:43:00,42.1,31.9,30.02,SE,135,3.2,-999.0,67,-99.99,,,0.00,Acu-Link.com,2013-03-09 14:43:00,
2013-03-09 09:58:00,45.1,33.7,30.03,ESE,112,6.3,-999.0,64,-99.99,,,0.00,Acu-Link.com,2013-03-09 14:58:00,
2013-03-09 10:13:00,45.3,31.8,30.02,ESE,112,9.4,-999.0,59,-99.99,,,0.00,Acu-Link.com,2013-03-09 15:13:00,
2013-03-09 10:28:00,46.2,31.8,30.00,East,90,9.4,-999.0,57,-99.99,,,0.00,Acu-Link.com,2013-03-09 15:28:00,
2013-03-09 10:44:00,48.9,34.3,30.01,ESE,112,7.3,-999.0,57,-99.99,,,0.00,Acu-Link.com,2013-03-09 15:44:00,
2013-03-09 10:59:00,48.0,33.1,30.01,East,90,7.8,-999.0,56,-99.99,,,0.00,Acu-Link.com,2013-03-09 15:59:00,
2013-03-09 11:14:00,50.4,34.8,30.00,SE,135,7.8,-999.0,55,-99.99,,,0.00,Acu-Link.com,2013-03-09 16:14:00,
2013-03-09 11:29:00,49.8,33.4,30.00,ESE,112,5.3,-999.0,53,-99.99,,,0.00,Acu-Link.com,2013-03-09 16:29:00,
2013-03-09 11:44:00,51.6,34.1,30.00,ESE,112,3.7,-999.0,51,-99.99,,,0.00,Acu-Link.com,2013-03-09 16:44:00,
2013-03-09 11:59:00,51.8,33.8,29.99,ESE,112,8.3,-999.0,50,-99.99,,,0.00,Acu-Link.com,2013-03-09 16:59:00,
2013-03-09 12:14:00,51.8,34.3,29.99,SSE,157,3.2,-999.0,51,-99.99,,,0.00,Acu-Link.com,2013-03-09 17:14:00,
2013-03-09 12:29:00,53.4,34.2,29.97,ESE,112,3.7,-999.0,48,-99.99,,,0.00,Acu-Link.com,2013-03-09 17:29:00,
2013-03-09 12:45:00,55.6,36.2,29.97,South,180,6.3,-999.0,48,-99.99,,,0.00,Acu-Link.com,2013-03-09 17:45:00,
2013-03-09 13:00:00,56.7,37.2,29.96,SE,135,4.7,-999.0,48,-99.99,,,0.00,Acu-Link.com,2013-03-09 18:00:00,
2013-03-09 13:15:00,57.6,37.0,29.96,ESE,112,4.7,-999.0,46,-99.99,,,0.00,Acu-Link.com,2013-03-09 18:15:00,
2013-03-09 13:30:00,58.5,35.5,29.95,South,180,2.7,-999.0,42,-99.99,,,0.00,Acu-Link.com,2013-03-09 18:30:00,
2013-03-09 13:45:00,59.4,35.7,29.94,SSW,202,3.7,-999.0,41,-99.99,,,0.00,Acu-Link.com,2013-03-09 18:45:00,
2013-03-09 14:00:00,59.9,34.9,29.93,SE,135,7.8,-999.0,39,-99.99,,,0.00,Acu-Link.com,2013-03-09 19:00:00,
2013-03-09 14:15:00,61.5,36.3,29.92,WSW,247,3.2,-999.0,39,-99.99,,,0.00,Acu-Link.com,2013-03-09 19:15:00,
2013-03-09 14:30:00,61.5,34.3,29.91,South,180,2.7,-999.0,36,-99.99,,,0.00,Acu-Link.com,2013-03-09 19:30:00,
2013-03-09 14:45:00,61.9,32.5,29.90,SW,225,5.3,-999.0,33,-99.99,,,0.00,Acu-Link.com,2013-03-09 19:45:00,
2013-03-09 15:01:00,61.3,30.4,29.88,SSE,157,4.2,-999.0,31,-99.99,,,0.00,Acu-Link.com,2013-03-09 20:01:00,
2013-03-09 15:16:00,63.1,33.5,29.88,SSE,157,1.7,-999.0,33,-99.99,,,0.00,Acu-Link.com,2013-03-09 20:16:00,
2013-03-09 15:31:00,64.2,33.7,29.88,ENE,67,1.1,-999.0,32,-99.99,,,0.00,Acu-Link.com,2013-03-09 20:31:00,
2013-03-09 15:46:00,63.5,35.4,29.87,SE,135,2.7,-999.0,35,-99.99,,,0.00,Acu-Link.com,2013-03-09 20:46:00,
2013-03-09 16:01:00,63.3,32.9,29.87,East,90,5.8,-999.0,32,-99.99,,,0.00,Acu-Link.com,2013-03-09 21:01:00,
2013-03-09 16:16:00,63.9,32.7,29.87,South,180,0.0,-999.0,31,-99.99,,,0.00,Acu-Link.com,2013-03-09 21:16:00,
2013-03-09 16:31:00,64.0,30.2,29.86,SSE,157,2.7,-999.0,28,-99.99,,,0.00,Acu-Link.com,2013-03-09 21:31:00,
2013-03-09 16:46:00,66.4,30.5,29.86,ESE,112,3.7,-999.0,26,-99.99,,,0.00,Acu-Link.com,2013-03-09 21:46:00,
2013-03-09 17:01:00,67.5,29.4,29.86,South,180,0.0,-999.0,24,-99.99,,,0.00,Acu-Link.com,2013-03-09 22:01:00,
2013-03-09 17:16:00,67.3,33.1,29.85,WSW,247,3.2,-999.0,28,-99.99,,,0.00,Acu-Link.com,2013-03-09 22:16:00,
2013-03-09 17:32:00,65.7,37.3,29.85,WSW,247,0.0,-999.0,35,-99.99,,,0.00,Acu-Link.com,2013-03-09 22:32:00,
2013-03-09 17:47:00,64.4,33.1,29.85,SW,225,2.2,-999.0,31,-99.99,,,0.00,Acu-Link.com,2013-03-09 22:47:00,
2013-03-09 18:02:00,61.3,36.1,29.86,WSW,247,0.0,-999.0,39,-99.99,,,0.00,Acu-Link.com,2013-03-09 23:02:00,
2013-03-09 18:17:00,57.9,35.5,29.85,WSW,247,0.0,-999.0,43,-99.99,,,0.00,Acu-Link.com,2013-03-09 23:17:00,
2013-03-09 18:32:00,55.2,34.8,29.85,East,90,0.0,-999.0,46,-99.99,,,0.00,Acu-Link.com,2013-03-09 23:32:00,
2013-03-09 18:47:00,52.5,32.3,29.85,NE,45,0.0,-999.0,46,-99.99,,,0.00,Acu-Link.com,2013-03-09 23:47:00,
2013-03-09 19:02:00,50.4,35.3,29.85,SE,135,0.0,-999.0,56,-99.99,,,0.00,Acu-Link.com,2013-03-10 00:02:00,
2013-03-09 19:17:00,49.6,36.3,29.84,SSE,157,0.0,-999.0,60,-99.99,,,0.00,Acu-Link.com,2013-03-10 00:17:00,
2013-03-09 19:32:00,49.8,37.3,29.85,ESE,112,0.0,-999.0,62,-99.99,,,0.00,Acu-Link.com,2013-03-10 00:32:00,
2013-03-09 19:48:00,49.6,36.3,29.85,East,90,0.0,-999.0,60,-99.99,,,0.00,Acu-Link.com,2013-03-10 00:48:00,
2013-03-09 20:03:00,49.6,39.1,29.85,NE,45,0.0,-999.0,67,-99.99,,,0.00,Acu-Link.com,2013-03-10 01:03:00,
2013-03-09 20:18:00,48.6,37.8,29.84,NNW,337,0.0,-999.0,66,-99.99,,,0.00,Acu-Link.com,2013-03-10 01:18:00,
2013-03-09 20:33:00,48.4,38.0,29.83,East,90,0.0,-999.0,67,-99.99,,,0.00,Acu-Link.com,2013-03-10 01:33:00,
2013-03-09 20:48:00,48.6,38.1,29.84,NNW,337,0.0,-999.0,67,-99.99,,,0.00,Acu-Link.com,2013-03-10 01:48:00,
2013-03-09 21:03:00,48.6,38.1,29.84,East,90,0.0,-999.0,67,-99.99,,,0.00,Acu-Link.com,2013-03-10 02:03:00,
2013-03-09 21:18:00,48.7,39.0,29.84,WNW,292,0.0,-999.0,69,-99.99,,,0.00,Acu-Link.com,2013-03-10 02:18:00,
2013-03-09 21:33:00,48.9,38.0,29.85,SSW,202,0.0,-999.0,66,-99.99,,,0.00,Acu-Link.com,2013-03-10 02:33:00,
2013-03-09 21:48:00,49.8,39.7,29.85,WSW,247,0.0,-999.0,68,-99.99,,,0.00,Acu-Link.com,2013-03-10 02:48:00,
2013-03-09 22:04:00,49.5,38.2,29.85,North,0,0.0,-999.0,65,-99.99,,,0.00,Acu-Link.com,2013-03-10 03:04:00,
2013-03-09 22:19:00,49.1,37.1,29.85,West,270,0.0,-999.0,63,-99.99,,,0.00,Acu-Link.com,2013-03-10 03:19:00,
2013-03-09 22:34:00,49.3,37.2,29.84,NW,315,0.0,-999.0,63,-99.99,,,0.00,Acu-Link.com,2013-03-10 03:34:00,
2013-03-09 22:49:00,48.6,39.6,29.84,ENE,67,0.0,-999.0,71,-99.99,,,0.00,Acu-Link.com,2013-03-10 03:49:00,
2013-03-09 23:04:00,48.6,37.0,29.83,ENE,67,0.0,-999.0,64,-99.99,,,0.00,Acu-Link.com,2013-03-10 04:04:00,
2013-03-09 23:19:00,50.0,37.1,29.83,NW,315,0.0,-999.0,61,-99.99,,,0.00,Acu-Link.com,2013-03-10 04:19:00,
2013-03-09 23:34:00,50.9,37.1,29.82,East,90,0.0,-999.0,59,-99.99,,,0.00,Acu-Link.com,2013-03-10 04:34:00,
2013-03-09 23:49:00,51.8,37.5,29.82,NNE,22,0.0,-999.0,58,-99.99,,,0.00,Acu-Link.com,2013-03-10 04:49:00,